Time,TemperatureF,DewpointF,PressureIn,WindDirection,WindDirectionDegrees,WindSpeedMPH,WindSpeedGustMPH,Humidity,HourlyPrecipIn,Conditions,Clouds,dailyrainin,SoftwareType,DateUTC
2013-06-30 00:13:00,73.4,67.6,29.51,ESE,112,1.6,-999.0,82,-99.99,,,0.00,Acu-Link.com,2013-06-30 04:13:00,
2013-06-30 00:28:00,73.4,67.6,29.51,SE,135,1.6,-999.0,82,-99.99,,,0.00,Acu-Link.com,2013-06-30 04:28:00,
2013-06-30 00:43:00,73.4,67.9,29.51,NE,45,1.6,-999.0,83,-99.99,,,0.00,Acu-Link.com,2013-06-30 04:43:00,
2013-06-30 00:58:00,73.4,67.6,29.51,NE,45,1.6,-999.0,82,-99.99,,,0.00,Acu-Link.com,2013-06-30 04:58:00,
2013-06-30 01:14:00,73.4,67.9,29.51,South,180,1.6,-999.0,83,-99.99,,,0.00,Acu-Link.com,2013-06-30 05:14:00,
2013-06-30 01:29:00,73.4,68.3,29.51,NE,45,1.6,-999.0,84,-99.99,,,0.00,Acu-Link.com,2013-06-30 05:29:00,
2013-06-30 01:44:00,73.4,68.3,29.51,SSE,157,3.1,-999.0,84,-99.99,,,0.00,Acu-Link.com,2013-06-30 05:44:00,
2013-06-30 02:00:00,73.4,68.3,29.50,East,90,0.0,-999.0,84,-99.99,,,0.00,Acu-Link.com,2013-06-30 06:00:00,
2013-06-30 02:15:00,73.4,68.6,29.51,NE,45,1.1,-999.0,85,-99.99,,,0.00,Acu-Link.com,2013-06-30 06:15:00,
2013-06-30 02:30:00,73.4,68.9,29.50,South,180,3.1,-999.0,86,-99.99,,,0.00,Acu-Link.com,2013-06-30 06:30:00,
2013-06-30 02:45:00,73.4,68.9,29.50,SSW,202,1.1,-999.0,86,-99.99,,,0.00,Acu-Link.com,2013-06-30 06:45:00,
2013-06-30 03:00:00,73.4,68.9,29.50,SSW,202,2.7,-999.0,86,-99.99,,,0.00,Acu-Link.com,2013-06-30 07:00:00,
2013-06-30 03:16:00,73.4,69.3,29.49,ESE,112,2.0,-999.0,87,-99.99,,,0.00,Acu-Link.com,2013-06-30 07:16:00,
2013-06-30 03:31:00,73.4,69.6,29.50,NE,45,1.6,-999.0,88,-99.99,,,0.00,Acu-Link.com,2013-06-30 07:31:00,
2013-06-30 03:46:00,73.4,69.6,29.49,SE,135,1.1,-999.0,88,-99.99,,,0.00,Acu-Link.com,2013-06-30 07:46:00,
2013-06-30 04:02:00,73.4,70.0,29.49,NW,315,0.0,-999.0,89,-99.99,,,0.00,Acu-Link.com,2013-06-30 08:02:00,
2013-06-30 04:17:00,73.4,70.0,29.49,West,270,3.1,-999.0,89,-99.99,,,0.00,Acu-Link.com,2013-06-30 08:17:00,
2013-06-30 04:32:00,73.4,69.6,29.49,SSW,202,3.6,-999.0,88,-99.99,,,0.00,Acu-Link.com,2013-06-30 08:32:00,
2013-06-30 04:47:00,73.4,69.3,29.49,NE,45,1.6,-999.0,87,-99.99,,,0.00,Acu-Link.com,2013-06-30 08:47:00,
2013-06-30 05:02:00,73.4,69.3,29.50,WNW,292,1.6,-999.0,87,-99.99,,,0.00,Acu-Link.com,2013-06-30 09:02:00,
2013-06-30 05:17:00,71.6,67.9,29.50,NNE,22,1.6,-999.0,88,-99.99,,,0.00,Acu-Link.com,2013-06-30 09:17:00,
2013-06-30 05:33:00,71.6,67.9,29.50,ENE,67,1.6,-999.0,88,-99.99,,,0.00,Acu-Link.com,2013-06-30 09:33:00,
2013-06-30 05:48:00,71.6,68.2,29.51,ESE,112,2.7,-999.0,89,-99.99,,,0.00,Acu-Link.com,2013-06-30 09:48:00,
2013-06-30 06:03:00,71.6,67.9,29.51,SSW,202,2.7,-999.0,88,-99.99,,,0.00,Acu-Link.com,2013-06-30 10:03:00,
2013-06-30 06:18:00,71.6,67.9,29.52,SSE,157,3.6,-999.0,88,-99.99,,,0.00,Acu-Link.com,2013-06-30 10:18:00,
2013-06-30 06:33:00,71.6,68.2,29.52,ESE,112,1.6,-999.0,89,-99.99,,,0.00,Acu-Link.com,2013-06-30 10:33:00,
2013-06-30 06:49:00,71.6,67.9,29.53,ESE,112,2.0,-999.0,88,-99.99,,,0.00,Acu-Link.com,2013-06-30 10:49:00,
2013-06-30 07:04:00,71.6,67.5,29.53,ENE,67,2.0,-999.0,87,-99.99,,,0.00,Acu-Link.com,2013-06-30 11:04:00,
2013-06-30 07:19:00,73.4,68.9,29.54,WNW,292,1.6,-999.0,86,-99.99,,,0.00,Acu-Link.com,2013-06-30 11:19:00,
2013-06-30 07:34:00,73.4,68.9,29.54,WNW,292,2.0,-999.0,86,-99.99,,,0.00,Acu-Link.com,2013-06-30 11:34:00,
2013-06-30 07:50:00,73.4,68.6,29.54,North,0,0.0,-999.0,85,-99.99,,,0.00,Acu-Link.com,2013-06-30 11:50:00,
2013-06-30 08:05:00,73.4,68.6,29.55,WNW,292,0.0,-999.0,85,-99.99,,,0.00,Acu-Link.com,2013-06-30 12:05:00,
2013-06-30 08:20:00,73.4,68.3,29.55,West,270,0.0,-999.0,84,-99.99,,,0.00,Acu-Link.com,2013-06-30 12:20:00,
2013-06-30 08:35:00,75.2,69.7,29.56,ENE,67,1.6,-999.0,83,-99.99,,,0.00,Acu-Link.com,2013-06-30 12:35:00,
2013-06-30 08:51:00,75.2,69.7,29.56,WNW,292,1.1,-999.0,83,-99.99,,,0.00,Acu-Link.com,2013-06-30 12:51:00,
2013-06-30 09:06:00,77.0,71.1,29.56,South,180,3.6,-999.0,82,-99.99,,,0.00,Acu-Link.com,2013-06-30 13:06:00,
2013-06-30 09:21:00,77.0,71.4,29.57,SW,225,1.1,-999.0,83,-99.99,,,0.00,Acu-Link.com,2013-06-30 13:21:00,
2013-06-30 09:36:00,77.0,70.7,29.57,SE,135,0.0,-999.0,81,-99.99,,,0.00,Acu-Link.com,2013-06-30 13:36:00,
2013-06-30 09:51:00,78.8,71.3,29.57,SW,225,2.0,-999.0,78,-99.99,,,0.00,Acu-Link.com,2013-06-30 13:51:00,
2013-06-30 10:07:00,82.4,72.4,29.57,East,90,2.7,-999.0,72,-99.99,,,0.00,Acu-Link.com,2013-06-30 14:07:00,
2013-06-30 10:22:00,78.8,70.6,29.56,South,180,3.1,-999.0,76,-99.99,,,0.00,Acu-Link.com,2013-06-30 14:22:00,
2013-06-30 10:37:00,80.6,70.7,29.56,South,180,3.6,-999.0,72,-99.99,,,0.00,Acu-Link.com,2013-06-30 14:37:00,
2013-06-30 10:52:00,82.4,71.2,29.56,SSE,157,3.6,-999.0,69,-99.99,,,0.00,Acu-Link.com,2013-06-30 14:52:00,
2013-06-30 11:08:00,86.0,72.8,29.56,North,0,2.0,-999.0,65,-99.99,,,0.00,Acu-Link.com,2013-06-30 15:08:00,
2013-06-30 11:23:00,86.0,74.2,29.57,South,180,4.7,-999.0,68,-99.99,,,0.00,Acu-Link.com,2013-06-30 15:23:00,
2013-06-30 11:38:00,86.0,71.9,29.57,SSE,157,2.7,-999.0,63,-99.99,,,0.00,Acu-Link.com,2013-06-30 15:38:00,
2013-06-30 11:53:00,93.2,74.0,29.56,SSW,202,2.7,-999.0,54,-99.99,,,0.00,Acu-Link.com,2013-06-30 15:53:00,
2013-06-30 12:08:00,87.8,72.2,29.56,South,180,1.6,-999.0,60,-99.99,,,0.00,Acu-Link.com,2013-06-30 16:08:00,
2013-06-30 12:23:00,91.4,72.4,29.56,South,180,2.0,-999.0,54,-99.99,,,0.00,Acu-Link.com,2013-06-30 16:23:00,
2013-06-30 12:39:00,95.0,72.8,29.55,SSE,157,3.6,-999.0,49,-99.99,,,0.00,Acu-Link.com,2013-06-30 16:39:00,
2013-06-30 12:54:00,89.6,71.8,29.56,SE,135,4.7,-999.0,56,-99.99,,,0.00,Acu-Link.com,2013-06-30 16:54:00,
2013-06-30 13:09:00,89.6,72.8,29.55,SSE,157,3.6,-999.0,58,-99.99,,,0.00,Acu-Link.com,2013-06-30 17:09:00,
2013-06-30 13:24:00,89.6,73.3,29.56,NNW,337,0.0,-999.0,59,-99.99,,,0.00,Acu-Link.com,2013-06-30 17:24:00,
2013-06-30 13:40:00,89.6,72.8,29.56,North,0,1.1,-999.0,58,-99.99,,,0.00,Acu-Link.com,2013-06-30 17:40:00,
2013-06-30 13:55:00,87.8,71.1,29.55,ESE,112,1.6,-999.0,58,-99.99,,,0.00,Acu-Link.com,2013-06-30 17:55:00,
2013-06-30 14:10:00,87.8,71.1,29.55,SSE,157,1.1,-999.0,58,-99.99,,,0.00,Acu-Link.com,2013-06-30 18:10:00,
2013-06-30 14:26:00,86.0,70.5,29.54,South,180,1.6,-999.0,60,-99.99,,,0.00,Acu-Link.com,2013-06-30 18:26:00,
2013-06-30 14:41:00,91.4,71.8,29.54,South,180,3.6,-999.0,53,-99.99,,,0.00,Acu-Link.com,2013-06-30 18:41:00,
2013-06-30 14:56:00,91.4,69.5,29.54,ESE,112,2.7,-999.0,49,-99.99,,,0.00,Acu-Link.com,2013-06-30 18:56:00,
2013-06-30 15:11:00,96.8,73.2,29.53,North,0,3.1,-999.0,47,-99.99,,,0.00,Acu-Link.com,2013-06-30 19:11:00,
2013-06-30 15:27:00,98.6,72.9,29.53,West,270,1.6,-999.0,44,-99.99,,,0.00,Acu-Link.com,2013-06-30 19:27:00,
2013-06-30 15:42:00,95.0,70.9,29.53,ESE,112,3.6,-999.0,46,-99.99,,,0.00,Acu-Link.com,2013-06-30 19:42:00,
2013-06-30 15:57:00,96.8,73.2,29.53,SW,225,4.7,-999.0,47,-99.99,,,0.00,Acu-Link.com,2013-06-30 19:57:00,
2013-06-30 16:13:00,98.6,74.2,29.53,ESE,112,1.6,-999.0,46,-99.99,,,0.00,Acu-Link.com,2013-06-30 20:13:00,
2013-06-30 16:28:00,95.0,75.7,29.53,East,90,1.6,-999.0,54,-99.99,,,0.00,Acu-Link.com,2013-06-30 20:28:00,
2013-06-30 16:43:00,89.6,72.3,29.53,West,270,2.7,-999.0,57,-99.99,,,0.00,Acu-Link.com,2013-06-30 20:43:00,
2013-06-30 16:58:00,86.0,75.0,29.53,SE,135,1.6,-999.0,70,-99.99,,,0.01,Acu-Link.com,2013-06-30 20:58:00,
2013-06-30 17:13:00,78.8,69.8,29.53,SSE,157,1.6,-999.0,74,-99.99,,,0.04,Acu-Link.com,2013-06-30 21:13:00,
2013-06-30 17:29:00,75.2,67.5,29.55,West,270,2.0,-999.0,77,-99.99,,,0.11,Acu-Link.com,2013-06-30 21:29:00,
2013-06-30 17:44:00,73.4,67.2,29.55,WNW,292,4.0,-999.0,81,-99.99,,,0.11,Acu-Link.com,2013-06-30 21:44:00,
2013-06-30 17:59:00,71.6,65.1,29.55,WNW,292,1.6,-999.0,80,-99.99,,,0.12,Acu-Link.com,2013-06-30 21:59:00,
2013-06-30 18:14:00,71.6,67.2,29.57,NNW,337,2.0,-999.0,86,-99.99,,,0.13,Acu-Link.com,2013-06-30 22:14:00,
2013-06-30 18:36:00,71.6,67.9,29.57,NNW,337,3.1,-999.0,88,-99.99,,,0.21,Acu-Link.com,2013-06-30 22:36:00,
2013-06-30 18:52:00,69.8,65.1,29.57,WNW,292,2.7,-999.0,85,-99.99,,,0.22,Acu-Link.com,2013-06-30 22:52:00,
2013-06-30 19:07:00,69.8,66.4,29.58,NNE,22,0.0,-999.0,89,-99.99,,,0.28,Acu-Link.com,2013-06-30 23:07:00,
2013-06-30 19:22:00,69.8,67.0,29.59,NNW,337,0.0,-999.0,91,-99.99,,,0.34,Acu-Link.com,2013-06-30 23:22:00,
2013-06-30 19:37:00,71.6,69.8,29.60,WSW,247,1.6,-999.0,94,-99.99,,,0.46,Acu-Link.com,2013-06-30 23:37:00,
2013-06-30 19:53:00,71.6,70.1,29.61,East,90,2.0,-999.0,95,-99.99,,,0.52,Acu-Link.com,2013-06-30 23:53:00,
2013-06-30 20:08:00,71.6,70.1,29.61,SSW,202,3.6,-999.0,95,-99.99,,,0.55,Acu-Link.com,2013-07-01 00:08:00,
2013-06-30 20:23:00,71.6,69.8,29.61,East,90,3.1,-999.0,94,-99.99,,,0.59,Acu-Link.com,2013-07-01 00:23:00,
2013-06-30 20:38:00,71.6,69.8,29.60,South,180,2.7,-999.0,94,-99.99,,,0.63,Acu-Link.com,2013-07-01 00:38:00,
2013-06-30 20:53:00,69.8,68.0,29.60,South,180,1.6,-999.0,94,-99.99,,,0.68,Acu-Link.com,2013-07-01 00:53:00,
2013-06-30 21:08:00,69.8,67.7,29.60,SSE,157,2.7,-999.0,93,-99.99,,,0.69,Acu-Link.com,2013-07-01 01:08:00,
2013-06-30 21:23:00,69.8,67.7,29.60,East,90,1.6,-999.0,93,-99.99,,,0.69,Acu-Link.com,2013-07-01 01:23:00,
2013-06-30 21:38:00,69.8,67.7,29.60,ESE,112,1.6,-999.0,93,-99.99,,,0.69,Acu-Link.com,2013-07-01 01:38:00,
2013-06-30 21:54:00,69.8,68.0,29.60,North,0,2.7,-999.0,94,-99.99,,,0.72,Acu-Link.com,2013-07-01 01:54:00,
2013-06-30 22:09:00,69.8,68.0,29.59,North,0,0.0,-999.0,94,-99.99,,,0.72,Acu-Link.com,2013-07-01 02:09:00,
2013-06-30 22:24:00,68.0,66.2,29.61,North,0,2.0,-999.0,94,-99.99,,,0.72,Acu-Link.com,2013-07-01 02:24:00,
2013-06-30 22:39:00,68.0,66.5,29.62,North,0,1.1,-999.0,95,-99.99,,,0.72,Acu-Link.com,2013-07-01 02:39:00,
2013-06-30 22:55:00,68.0,66.5,29.62,North,0,0.0,-999.0,95,-99.99,,,0.72,Acu-Link.com,2013-07-01 02:55:00,
2013-06-30 23:10:00,68.0,66.5,29.63,North,0,0.0,-999.0,95,-99.99,,,0.72,Acu-Link.com,2013-07-01 03:10:00,
2013-06-30 23:25:00,68.0,66.5,29.62,North,0,0.0,-999.0,95,-99.99,,,0.72,Acu-Link.com,2013-07-01 03:25:00,
2013-06-30 23:40:00,68.0,66.5,29.63,North,0,1.6,-999.0,95,-99.99,,,0.72,Acu-Link.com,2013-07-01 03:40:00,
2013-06-30 23:56:00,68.0,66.5,29.64,North,0,1.1,-999.0,95,-99.99,,,0.72,Acu-Link.com,2013-07-01 03:56:00,